N365AD KSAN-KNZY

Flight info

Callsign N365AD
Flight time 0h 3m
Altitude VFR
Route
Aircraft C172/L-VGD/C

Departure

Time 2026-05-04 21:41
Airport San Diego International Airport (KSAN)

Arrival

Time 2026-05-04 21:45
Airport North Island Naval Air Station-Halsey Field (KNZY)
Time Latitude Longitude Altitude Speed Heading
2026-05-04 21:41 32.73250 -117.18478 332 ft 77 kts 288°
2026-05-04 21:41 32.73390 -117.19100 666 ft 78 kts 286°
2026-05-04 21:41 32.73497 -117.19746 1002 ft 80 kts 281°
2026-05-04 21:42 32.73627 -117.20458 1193 ft 101 kts 280°
2026-05-04 21:42 32.73745 -117.21347 1238 ft 112 kts 275°
2026-05-04 21:42 32.73796 -117.22174 1243 ft 92 kts 276°
2026-05-04 21:42 32.73544 -117.22721 1161 ft 104 kts 191°
2026-05-04 21:43 32.72855 -117.22231 1081 ft 129 kts 136°
2026-05-04 21:43 32.72137 -117.21787 1224 ft 124 kts 171°
2026-05-04 21:43 32.71265 -117.21723 1120 ft 127 kts 188°
2026-05-04 21:43 32.70437 -117.21792 947 ft 114 kts 186°
2026-05-04 21:44 32.69756 -117.21527 659 ft 112 kts 147°
2026-05-04 21:44 32.69221 -117.20860 385 ft 108 kts 139°
2026-05-04 21:44 32.68976 -117.20104 309 ft 103 kts 45°
2026-05-04 21:44 32.69318 -117.20397 30 ft 62 kts 299°
2026-05-04 21:45 32.69476 -117.20700 28 ft 18 kts
2026-05-04 21:45 32.69541 -117.20632 28 ft 0 kts 37°
2026-05-04 21:45 32.69568 -117.20613 29 ft 16 kts 26°
2026-05-04 21:45 32.69690 -117.20572 31 ft 6 kts 293°
2026-05-04 21:46 32.69690 -117.20573 31 ft 0 kts 291°
2026-05-04 22:10 32.69687 -117.20582 31 ft 13 kts 225°
2026-05-04 22:10 32.69508 -117.20505 28 ft 35 kts 122°
2026-05-04 22:10 32.69357 -117.20305 29 ft 26 kts 213°
2026-05-04 22:11 32.69391 -117.20556 43 ft 58 kts 296°
2026-05-04 22:11 32.69675 -117.21050 158 ft 85 kts 301°
2026-05-04 22:11 32.69969 -117.21602 610 ft 67 kts 290°
2026-05-04 22:11 32.70188 -117.22168 853 ft 86 kts 297°
2026-05-04 22:12 32.70685 -117.22665 1095 ft 93 kts 317°
2026-05-04 22:12 32.71214 -117.23152 1359 ft 93 kts 320°
2026-05-04 22:12 32.71824 -117.23481 1524 ft 109 kts 359°
2026-05-04 22:12 32.72259 -117.22725 1637 ft 126 kts 97°
2026-05-04 22:13 32.71757 -117.21865 1499 ft 133 kts 138°
2026-05-04 22:13 32.71840 -117.20930 1601 ft 131 kts 27°
2026-05-04 22:13 32.72524 -117.21250 1750 ft 112 kts 304°
2026-05-04 22:13 32.72977 -117.22084 1537 ft 128 kts 298°
2026-05-04 22:14 32.73371 -117.23042 1322 ft 118 kts 294°
2026-05-04 22:14 32.73701 -117.23583 1276 ft 95 kts 339°
2026-05-04 22:14 32.74506 -117.23347 895 ft 117 kts 14°
2026-05-04 22:14 32.75124 -117.23355 990 ft 92 kts 290°